Regional Weather Roundup
Issued by NWS Wakefield, VA

Home | Current Version | Previous Version | Text Only | Print | Product List | Glossary Off
Versions: 1 2 3 4 5 6 7 8 9 10 11 12 13 14 15 16 17 18 19 20 21 22 23 24 25 26 27 28 29 30 31 32 33 34 35 36 37 38 39 40 41 42 43 44 45 46 47 48 49 50

000
ASUS41 KAKQ 211110
RWRAKQ

REGIONAL WEATHER ROUNDUP
NATIONAL WEATHER SERVICE WAKEFIELD VA
700 AM EDT THU AUG 21 2014

Note: "fair" indicates few or no clouds below 12,000 feet with no
significant weather and/or obstructions to visibility. * = Denotes
station may not report precipitation (e.g., rain,snow,etc.),
thunder or fog.

VAZ042-051-052>054-056-211200-
NORTHERN VIRGINIA

CITY           SKY/WX    TMP DP  RH WIND       PRES   REMARKS
WASH NATIONAL  PTCLDY    72  66  81 CALM      30.04R
DULLES         FOG       64  64 100 CALM      30.05R VSB<1/4
FORT BELVOIR   CLEAR     64  63  97 NW1       30.04R
QUANTICO       PTCLDY    68  65  90 NW7       30.04R
FREDERICKSBRG* FOG       66  66 100 CALM      30.03R VSB 3/4
STAFFORD*      PTCLDY    64  64 100 CALM      30.08R
WARRENTON      FOG       69  69 100 CALM      30.04R VSB 3/4
CULPEPER*      CLOUDY   N/A N/A N/A CALM      30.05R FOG
MANASSAS*      NOT AVBL
LEESBURG*      FOG       64  64 100 CALM      30.05R VSB 1/4
WINCHESTER     LGT RAIN  68  68 100 CALM      30.05R
$$

VAZ048-049-060>072-079>083-211200-
CENTRAL AND SOUTH CENTRAL VIRGINIA...AND NORTH CENTRAL NORTH CAROLINA

CITY           SKY/WX    TMP DP  RH WIND       PRES   REMARKS
RICHMOND       PTCLDY    71  68  90 CALM      30.02R
CHESTERFIELD*  SUNNY     66  57  72 CALM      30.05R
HANOVER        FOG       66  66 100 CALM      30.05R VSB 1/4
TAPPAHANNOCK*  PTCLDY    69  66  92 CALM      30.03R FOG
CHARLOTTSVILLE FOG       65  64  97 CALM      30.05R VSB 1/2
ORANGE*        FOG       68  64  88 CALM      30.06R VSB 1/4
LOUISA*        FOG       66  64  94 CALM      30.04R VSB<1/4
FARMVILLE*     FOG       66  64  94 CALM      30.04R VSB 1/2
SOUTH HILL*    CLEAR     72  72 100 CALM      30.09R FOG
ROANOKE RAPIDS FOG       70  70 100 CALM      30.03R VSB 1/2
RALEIGH        PTCLDY    71  69  93 CALM      30.05R FOG
$$

VAZ088>098-211200-
SOUTHEAST VIRGINIA

CITY           SKY/WX    TMP DP  RH WIND       PRES   REMARKS
NORFOLK        PTCLDY    76  72  87 S5        30.01R
VIRGINIA BEACH MOCLDY    76  73  91 S3        30.01R
NORFOLK NAVAL  MOCLDY    76  72  87 CALM      30.03R
WEST POINT*    CLOUDY    74  71  90 CALM      30.03R
NEWPORT NEWS   MOCLDY    76  71  85 CALM      30.02R
LANGLEY AFB    MOCLDY    75  75 100 VRB1      30.01R
FORT EUSTIS    CLOUDY    75 N/A N/A CALM      30.00R
WILLIAMSBURG*  CLOUDY    75  73  94 CALM      30.03R
FRANKLIN*      CLOUDY    73  73 100 CALM      30.02R VSB<1/4
WAKEFIELD      FOG       73  71  93 CALM      30.03R VSB 1/4
$$

VAZ020-022-025-037-045-211200-
WESTERN AND SOUTHWEST VIRGINIA

CITY           SKY/WX    TMP DP  RH WIND       PRES   REMARKS
STAUNTON*      FOG       64  62  95 CALM      30.10R VSB 1/4
HOT SPRINGS VA MOCLDY   N/A N/A N/A W8        30.23R HAZE
LYNCHBURG      FOG       69  69 100 CALM      30.08R VSB<1/4
DANVILLE       PTCLDY    69  67  93 CALM      30.07R FOG
MARTINSVILLE   PTCLDY    65  65 100 CALM      30.12R FOG
ROANOKE        PTCLDY    71  63  75 SE3       30.11R
BLACKSBURG     CLEAR     66  64  94 W3        30.18R
DUBLIN*        PTCLDY    65  63  93 CALM      30.18R
MARION*        CLOUDY    67  64  90 W9        30.23R
HILLSVILLE*    CLEAR     64  62  92 W7        30.19R
RICHLANDS*     FOG       65  64  94 SW3       30.21R VSB 1/4
WISE*          FOG       63  63 100 SE5       30.22R VSB 1/4
ABINGDON*      CLEAR     66  66  98 CALM      30.19R FOG
$$

MDZ021>025-VAZ099-100-211200-
SOUTHERN MARYLAND AND THE DELMARVA PENINSULA

CITY           SKY/WX    TMP DP  RH WIND       PRES   REMARKS
PATUXENT RIVER MOCLDY    73  71  93 CALM      30.02R
BAY BRIDGE APT   N/A     72  68  88 SE5       30.03R
LEONARDTOWN      N/A     70  68  94 CALM      30.05R
DOVER          CLEAR     66  66 100 SE5       30.02R
GEORGETOWN     PTCLDY    67  64  90 E9        30.04R
EASTON         PTCLDY    68  68 100 CALM      30.07R
CAMBRIDGE      PTCLDY    70  66  88 CALM      30.03R
SALISBURY      MOCLDY    70  65  84 CALM      30.03R
OCEAN CITY     CLEAR     70  68  93 CALM      30.03R FOG
WALLOPS ISLAND MOCLDY    75  72  90 S5        30.03R
ACCOMACK*      CLOUDY    72  70  94 CALM      30.02R
$$

NCZ012>017-030>032-211200-
EASTERN NORTH CAROLINA

CITY           SKY/WX    TMP DP  RH WIND       PRES   REMARKS
ELIZABETH CITY PTCLDY    74  73  97 CALM      30.02R FOG
AHOSKIE*       CLOUDY    71  70  98 CALM      30.03R VSB 1/2
EDENTON*       CLEAR     73  72  96 CALM      30.03R FOG
CURRITUCK*     PTCLDY    74  70  89 CALM      30.03R
KILL DEVIL HLS MOCLDY    76  74  94 CALM      30.02R
MANTEO         MOCLDY    77  75  94 S6        30.03R
CAPE HATTERAS  PTCLDY    76  75  97 SW3       30.04R
GOLDSBORO      PTCLDY    72  72  99 CALM      30.02R
WASHINGTON     PTCLDY    73  72  96 CALM      30.03R
GREENVILLE     PTCLDY    73  73 100 CALM      30.05R FOG
NEW BERN       FOG       76  74  93 CALM      30.04R VSB 1/4
WILMINGTON     FOG       80  79  96 CALM      30.02R VSB<1/4
$$

VAZ048-211200-
ELSEWHERE

CITY           SKY/WX    TMP DP  RH WIND       PRES   REMARKS
HARRISBURG PA  MOCLDY    69  65  86 CALM      30.04R
BALTIMORE      PTCLDY    65  63  93 CALM      30.03R
ANNAPOLIS      CLEAR     73  70  90 CALM      30.02R
ANDREWS AFB    CLEAR     66  66 100 N1        30.03R
WILMINGTON DE  CLEAR     69  65  86 S3        30.04R
PHILADELPHIA   PTCLDY    69  64  84 SE6       30.04R
WILDWOOD NJ*   CLEAR     64  59  82 CALM      30.04F
ATLANTIC CITY  CLEAR     64  62  93 CALM      30.04R FOG
HENDERSON NC   CLEAR     69  67  95 CALM      30.06R
GREENSBORO     MOCLDY    73  65  75 NW6       30.08R
ROCKY MOUNT    FOG       72  71  97 CALM      30.04R VSB 1
FAYETTEVILLE   CLEAR     77  74  90 W5        30.03R
CHARLOTTE      MOCLDY    71  64  78 N7        30.08R
$$

VAZ100-211200-
MARINE

STATION/POSITION TIME  TEMP    WIND        PRES    WAVE   SWELL
                       AIR SEA DIR/SP/G            HT/PER HT/PER
                 (UTC) (F)     (DEG/KT/KT) (MB)    (FT/S) (FT/S)
44066 TX TWR #4  1100   70 72  360/ 10/ 10 1016.6R   3/ 6   2/ 6
CAPE MAY NJ      1100   69 80   80/  1/  2 1016.6S
LEWES DE         1100   71 74  120/  1/  2 1016.6R
15NM E FENWICK I 1100   74 75              1016.7R   2/ 6
OCEAN-CITY-INLET 1100   73 75  140/  2/  4 1016.2R
WACHAPREAGUE VA  1100   76 80  180/  4/  6 1016.4R
THOMAS POINT MD  1100   73 78  110/  8/  9 1017.2R
GOOSES REEF MD   1100   76     190/  6/  8 1016.9R
COVE POINT MD    1100   75     240/  6/  6 1016.5R
SOLOMONS ISLAND  1100      80                N/A
BISHOPS HEAD MD  1100   76 78  130/  7/  8 1016.1R
PINEY POINT MD   1100          230/  5/  6   N/A
POTOMAC MD       1100   76     210/  4/  6 1015.7R
CAMBRIDGE MD     1100   70 78  110/  1/  2 1016.4R
LEWISETTA VA     1100   74 80  280/  3/  4 1016.5R
RAPPAHANNOCK LGT 1100          170/  8/  8 1016.7S
STINGRAY PT      1100   77     200/  8/  8 1016.7R
YORK RVR RNG VA  1100   76     260/  4/  5 1016.0R
YORKTOWN VA      1100   75 80  270/  3/  4 1016.2R
JAMESTOWN VA     1100   72     280/  4/  6   N/A
DOMINION TERM VA 1100   76     180/  5/  6 1016.2R
KIPTOPEKE VA     1100      81  180/  9/ 11   N/A
CHES BAY BRIDGE  1100   76 78  150/  8/  9 1015.5R
CAPE HENRY VA    1100   76     170/  6/  9 1014.9R
CHESAPEAKE LGHT  1000   76     170/ 10/ 10 1016.8R
WILLOUBY STN VA  1100   75                 1015.0R
S CRANEY ISL VA  1100          170/  5/  8 1016.0R
CAPE HENRY BUOY  1100      78                N/A     2/ 7
1ST LANDING BUOY 1100   77     160/  8/ 10 1015.7S
CAPE CHARLES BUO 1100      77                N/A     2/ 7   2/ 7
OFFSHORE WE BUOY 1100      77                N/A     2/ 7   2/ 7
64NM E OF VA BCH 1100   77 78  180/  2/  4 1016.6R   2/ 7   2/ 7
DUCK PIER NC     1100   77 78  160/  6/  7 1015.9R
44056 DUCK FRF   1100                        N/A     2/ 6
OREGON INLET NC  1100   77 81  120/  4/  5 1016.7R
HATTERAS NC      1100   80 81  200/  3/  4 1017.5R
DIAMOND SHLS NC  1100   80     180/  4/  6 1017.0R   3/ 8   3/ 8
CAPE LOOKOUT NC  1000   79     200/  5/  6 1015.9R
$$



USA.gov is the U.S. government's official web portal to all federal, state and local government web resources and services.